OpenBCM V1.13 (Linux)

Packet Radio Mailbox

DB0FHN

[JN59NK Nuernberg]

 Login: GUEST





  
LU9DCE > KEP      18.08.19 20:34l 241 Lines 11922 Bytes #999 (0) @ WW
BID : 30105_LU9DCE
Read: DJ6UX DF7EAV GUEST
Subj: TLE 18 08
Path: DB0FHN<DB0BLO<DB0ERF<OK0NAG<OK0NBR<SV1CMG<SV1CMG<ZL2BAU<W9ABA<KE0GB<
      NS2B<VA7RBP<VA7PF<GB7YEW<LU9DCE
Sent: 190818/1801Z 30105@LU9DCE.TOR.BA.ARG.SOAM LinBPQ6.0.18

            __    _  _  ___  ____   ___  ____    ____  ____  ____
           (  )  / )( \/ _ \(    \ / __)(  __)  (  _ \(  _ \/ ___)
           / (_/\) \/ (\__  )) D (( (__  ) _)    ) _ ( ) _ (\___ \
           \____/\____/(___/(____/ \___)(____)  (____/(____/(____/
               ESTACION DE PACKET RADIO - BUENOS AIRES (GF05OM)
                   BOLETINES INFORMATIVOS PROGRAMADOS (BIP)
                  SLACKWARE LINUX - HELLOCODELINUX@GMAIL.COM
                          https://slacko.home.blog
+----------------------------------------------------------------------------+
OSCAR 7
1  7530U 74089B   19228.91926907 -.00000050 +00000-0 -31024-4 0  9999
2  7530 101.7487 195.9848 0011730 232.3222 192.4785 12.53639282047702
OSCAR 11 (UoSAT 2)
1 14781U 84021B   19229.07206368  .00000016  00000-0  80217-5 0  9991
2 14781  97.6084 250.9736 0009843 119.8163 240.4031 14.83100561907562
OSCAR 19 (LUSAT)
1 20442U 90005G   19228.81261144 -.00000006 +00000-0 +13998-4 0  9996
2 20442 098.6509 170.7224 0011411 341.0380 019.0378 14.32930680544783
EYESAT A
1 22825U 93061C   19228.90154962 -.00000017 +00000-0 +11597-4 0  9992
2 22825 098.9067 218.8996 0008317 179.1138 181.0060 14.30064356350143
ITAMSAT
1 22826U 93061D   19228.95937704 -.00000025 +00000-0 +83243-5 0  9998
2 22826 098.9007 218.9429 0009039 168.1563 191.9833 14.30398090350370
RADIO ROSTO
1 23439U 94085A   19229.02737993 -.00000059  00000-0 -46593-3 0  9996
2 23439  64.8192  20.1689 0146002 101.7241 260.0105 11.27568709 14744
JAS 2
1 24278U 96046B   19228.92818206 -.00000044 +00000-0 -11938-4 0  9992
2 24278 098.5458 014.3191 0351360 086.4497 277.6752 13.53092799135563
TECHSAT 1B
1 25397U 98043D   19228.79599404 -.00000026 +00000-0 +79312-5 0  9995
2 25397 098.6906 168.2315 0000849 164.5807 195.5398 14.23668949096067
ISS (ZARYA)
1 25544U 98067A   19229.39083552  .00000228  00000-0  11917-4 0  9993
2 25544  51.6447  57.6210 0007373 294.0868 138.8050 15.50381554184754
PCSAT
1 26931U 01043C   19229.20737791 -.00000068  00000-0  57980-5 0  9997
2 26931  67.0497 210.0999 0007451 274.3277  85.6973 14.30549514933486
SAUDISAT 1C
1 27607U 02058C   19228.51052314 -.00000071  00000-0  10925-4 0  9990
2 27607  64.5532 229.7643 0079004 245.2242 114.0626 14.75564756895713
CUTE-1
1 27844U 03031E   19228.96143550 +.00000025 +00000-0 +30879-4 0  9995
2 27844 098.6842 236.2889 0009065 213.9503 146.1096 14.22189696836670
CUBESAT XI 4
1 27848U 03031J   19228.97045885  .00000015  00000-0  26657-4 0  9990
2 27848  98.6918 236.8105 0008804 226.4374 133.6073 14.21783555836567
MOZHAYETS 4
1 27939U 03042A   19229.05571102  .00000004  00000-0  93976-5 0  9996
2 27939  98.0491   3.7415 0011960 236.1794 123.8242 14.66796077849244
CUBESAT XI 5
1 28895U 05043F   19229.18851811  .00000058  00000-0  20032-4 0  9994
2 28895  97.9675   9.9070 0017349 159.5791 200.6109 14.63682259736182
CUTE-1.7+APD II
1 32785U 08021C   19229.18534674  .00000102  00000-0  16624-4 0  9993
2 32785  97.5516 226.0994 0014625  68.3449 291.9324 14.88331349612535
DELFI C3
1 32789U 08021G   19228.71298299 +.00000273 +00000-0 +22213-4 0  9995
2 32789 097.4601 276.5859 0010496 285.2969 074.7098 15.07049043615753
SEEDS
1 32791U 08021J   19228.83509695 +.00000225 +00000-0 +28150-4 0  9999
2 32791 097.5288 231.7974 0014510 045.9325 314.3086 14.90850211612842
YUBELEINY
1 32953U 08025A   19229.04168350  .00000020  00000-0  75656-4 0  9992
2 32953  82.5005 107.8607 0019631   2.0490 358.0663 12.43090718509682
PRISM (HITOMI)
1 33493U 09002B   19229.09711818 -.00000248  00000-0 -16082-4 0  9998
2 33493  98.1205 152.3046 0015234 352.3887   7.7099 14.96701900574039
KKS-1 (KISEKI)
1 33499U 09002H   19228.87869587 +.00000036 +00000-0 +13425-4 0  9997
2 33499 098.3472 069.4642 0009735 025.7521 334.4170 14.75454924567522
SWISSCUBE
1 35932U 09051B   19228.89164051 +.00000064 +00000-0 +25527-4 0  9998
2 35932 098.5936 036.6151 0007345 353.6693 006.4410 14.56300266525358
BEESAT
1 35933U 09051C   19228.89103312 +.00000042 +00000-0 +20553-4 0  9992
2 35933 098.5959 038.3989 0005870 009.7255 350.4055 14.56387460525422
ITUPSAT 1
1 35935U 09051E   19228.91413209 +.00000044 +00000-0 +21326-4 0  9997
2 35935 098.6070 038.6563 0008080 003.5336 356.5916 14.55545372525226
XIWANG-1 (HOPE-1)
1 36122U 09072B   19229.09537387 -.00000059  00000-0 -43302-4 0  9999
2 36122 100.0745 228.6836 0007217 207.0258 153.0481 13.16350134464697
TISAT 1
1 36799U 10035E   19228.93573654 +.00000082 +00000-0 +14367-4 0  9992
2 36799 098.1631 023.0778 0010990 249.2064 110.7976 14.91134235493399
JUGNU
1 37839U 11058B   19228.58401826 +.00000315 +00000-0 +26122-4 0  9997
2 37839 019.9624 337.6493 0018773 256.5928 213.1640 14.12655665405480
SRMSAT
1 37841U 11058D   19228.86732469  .00000286  00000-0  11902-4 0  9998
2 37841  19.9734  33.9271 0011847 126.5718  24.6903 14.10636331405061
M-CUBED/EXP-1 PRIME
1 37855U 11061F   19228.74904923 +.00000616 +00000-0 +39010-4 0  9997
2 37855 101.7100 154.6590 0173039 261.7462 096.4095 15.05533298425196
HORYU 2
1 38340U 12025D   19229.10724156  .00000092  00000-0  21435-4 0  9997
2 38340  98.3250 269.4676 0010233 297.9576  62.0596 14.75737608389928
STRAND 1
1 39090U 13009E   19228.84080651 +.00000016 +00000-0 +20777-4 0  9992
2 39090 098.4837 073.7929 0010278 110.2931 249.9361 14.35093125338858
SOMP
1 39134U 13015E   19228.96150603 +.00000812 +00000-0 +46256-4 0  9990
2 39134 064.8625 188.4007 0034211 294.5968 065.1596 15.20250329349226
BEESAT 3
1 39135U 13015F   19229.18665589  .00000454  00000-0  32324-4 0  9993
2 39135  64.8683 206.8112 0029402 307.9461  51.9008 15.17543984349270
BEESAT 2
1 39136U 13015G   19229.18026652  .00000307  00000-0  25466-4 0  9992
2 39136  64.8672 210.8262 0022155 303.1287  56.7712 15.16960847349198
CUBEBUG 1
1 39153U 13018D   19229.23571675  .00000084  00000-0  17892-4 0  9996
2 39153  97.9805 327.0319 0017069  10.6352 349.5218 14.80583188340629
ZACUBE
1 39417U 13066B   19229.02068887  .00000107  00000-0  19872-4 0  9991
2 39417  97.5621 239.1884 0058407 198.0349 161.8793 14.81135165309821
TRITON 1
1 39427U 13066M   19228.89785770 +.00000151 +00000-0 +32220-4 0  9994
2 39427 097.6812 202.6323 0113282 336.6880 022.9211 14.67864657306830
GOMX 1
1 39430U 13066Q   19229.20950249  .00000119  00000-0  30245-4 0  9998
2 39430  97.7510 181.8561 0152483  66.6949 295.0212 14.59270485305287
HUMSAT D
1 39433U 13066T   19229.09293277  .00000219  00000-0  26639-4 0  9992
2 39433  97.5492 274.1578 0032361 102.1621 258.3227 14.92226457311930
CUBEBUG 2
1 39440U 13066AA  19229.00669133  .00000110  00000-0  22450-4 0  9996
2 39440  97.6044 223.9491 0078704 252.0101 107.2521 14.75873387308720
FUNCUBE 1
1 39444U 13066AE  19228.92093673 +.00000131 +00000-0 +22506-4 0  9995
2 39444 097.5599 241.0971 0057701 191.8715 168.1143 14.81957895308110
UWE-3
1 39446U 13066AG  19229.04467197  .00000106  00000-0  20847-4 0  9995
2 39446  97.5824 231.0716 0068827 225.5232 134.0341 14.78408046308037
SPROUT
1 39770U 14029E   19229.10202477  .00000257  00000-0  34551-4 0  9994
2 39770  97.8867 332.0174 0007687 251.0662 108.9714 14.87386996283669
UNISAT 6
1 40012U 14033C   19229.21026967  .00000096  00000-0  21925-4 0  9992
2 40012  97.7499  93.2354 0056823 265.8950  93.5763 14.73995188277452
DUCHIFAT 1
1 40021U 14033M   19228.74951083 +.00000272 +00000-0 +33559-4 0  9997
2 40021 097.9227 153.5384 0011940 210.4413 149.6113 14.90659167280344
QB50P1
1 40025U 14033R   19228.77120053 +.00000123 +00000-0 +19106-4 0  9996
2 40025 097.9036 148.3574 0011329 220.3785 139.6592 14.88965893279602
CHUBUSAT 1
1 40300U 14070C   19229.14929605  .00000297  00000-0  15903-4 0  9998
2 40300  97.3257 301.8230 0018811 203.6504 211.9135 15.22131614265065
NUDT-PHONESAT
1 40900U 15049B   19229.03879126  .00001088  00000-0  49332-4 0  9993
2 40900  97.4374 237.7932 0012555 344.2694  80.5751 15.22931496216694
ZDPS 2A
1 40901U 15049C   19229.07771314  .00000591  00000-0  32559-4 0  9999
2 40901  97.4600 234.0439 0013670   3.7244  81.9858 15.17785753216247
ZDPS 2B
1 40902U 15049D   19229.23674859  .00000576  00000-0  31928-4 0  9996
2 40902  97.4553 231.6547 0013569   0.2258  58.2491 15.17620916216241
XW-2A
1 40903U 15049E   19229.22107444  .00000916  00000-0  23485-4 0  9994
2 40903  97.3338 272.3106 0011868 292.0567 142.3898 15.41991325219420
KAITUO 1A
1 40904U 15049F   19229.15811640  .00000114  00000-0  95432-5 0  9999
2 40904  97.4678 230.1515 0014765   8.5298  61.8548 15.15395031216006
OBJECT G
1 40905U 15049G   19229.01886385  .00000029  00000-0  51574-5 0  9997
2 40905  97.4722 227.5052 0015822   2.9555  81.6006 15.14318447215858
XW-2C
1 40906U 15049H   19229.08373528  .00000258  00000-0  16999-4 0  9990
2 40906  97.4689 230.1806 0014791   0.0611  86.4304 15.15716363215993
XW-2D
1 40907U 15049J   19229.05278388  .00000510  00000-0  30052-4 0  9993
2 40907  97.4667 229.8313 0014077 357.6182  82.5354 15.15909744216001
LILACSAT 2
1 40908U 15049K   19228.62195994 -.00000068  00000-0 -11035-6 0  9999
2 40908  97.4802 228.1834 0016232   4.6462  89.7881 15.13824522215728
XW-2F
1 40910U 15049M   19229.15374193  .00000454  00000-0  26082-4 0  9994
2 40910  97.4637 232.0071 0014388 349.3274  77.0374 15.17362899216034
XW-2B
1 40911U 15049N   19229.15105942  .00000227  00000-0  15337-4 0  9998
2 40911  97.4687 230.5857 0014000 357.9315  65.0973 15.15836842215917
KAITUO 1B
1 40912U 15049P   19229.02732831  .00000552  00000-0  29064-4 0  9991
2 40912  97.4499 235.6128 0014032 330.8738  89.5804 15.19683639216328
TIANWANG 1C (TW-1C)
1 40926U 15051B   19229.12531016  .00007315  00000-0  10395-3 0  9992
2 40926  97.1314 275.2451 0009435 143.5069 274.3314 15.56643869219406
